Regional Weather Roundup
Issued by NWS Little Rock, AR

Home | Current Version | Previous Version | Text Only | Print | Product List | Glossary Off
Versions: 1 2 3 4 5 6 7 8 9 10 11 12 13 14 15 16 17 18 19 20 21 22 23 24 25 26 27 28 29 30 31 32 33 34 35 36 37 38 39 40 41 42 43 44 45 46 47 48 49

000
ASUS44 KLZK 291105
RWRLZK

WEATHER ROUNDUP FOR ARKANSAS
NATIONAL WEATHER SERVICE LITTLE ROCK AR
600 AM CDT FRI MAY 29 2015

NOTE: "FAIR" INDICATES FEW OR NO CLOUDS BELOW 12,000 FEET WITH NO
SIGNIFICANT WEATHER AND/OR OBSTRUCTIONS TO VISIBILITY.

ARZ001-003-010-029-291200-
NORTHWEST ARKANSAS

CITY           SKY/WX    TMP DP  RH WIND       PRES   REMARKS
FAYETTEVILLE   MOCLDY    67  65  93 S7        30.00R
FORT SMITH     CLOUDY    69  65  86 NE3       29.99R
HARRISON       CLEAR     64  61  90 E6        30.02R
BENTONVILLE    CLOUDY    70  63  78 SW6       30.01R
ROGERS         CLOUDY    66  64  93 CALM      30.02R
SILOAM SPGS    CLOUDY    66  59  77 S5        30.01S
HIGHFILL       CLOUDY    68  64  87 S6        30.00R
SPRINGDALE     CLOUDY    68  64  88 S6        30.03
$$

ARZ004-005-016-291200-
NORTH CENTRAL ARKANSAS

CITY           SKY/WX    TMP DP  RH WIND       PRES   REMARKS
BATESVILLE     CLOUDY    66  64  94 E5        30.03R
FLIPPIN        PTCLDY    64  61  88 CALM      29.99S
MTN HOME       PTCLDY    64  62  93 SE5       30.00S
$$

ARZ040-041-291200-
WEST CENTRAL ARKANSAS

CITY           SKY/WX    TMP DP  RH WIND       PRES   REMARKS
MENA           CLOUDY    73  70  88 S5        30.00R
MOUNT IDA      MOCLDY    68  66  93 CALM      29.99R
$$

ARZ009-017-025-026-028-291200-
NORTHEAST ARKANSAS

CITY           SKY/WX    TMP DP  RH WIND       PRES   REMARKS
JONESBORO      CLOUDY    65  65 100 CALM      30.04R
NEWPORT        MOCLDY    69  69 100 CALM      30.04R
WALNUT RIDGE   MOCLDY    68  64  88 S5        30.02S
BLYTHEVILLE    MOCLDY    68  67  96 S3        30.05R
$$

ARZ022-023-033-042-044-291200-
CENTRAL ARKANSAS

CITY           SKY/WX    TMP DP  RH WIND       PRES   REMARKS
LITTLE ROCK    MOCLDY    68  64  87 CALM      30.02R
N LITTLE ROCK    N/A     67  67  99 CALM      30.02R
JACKSONVILLE   PTCLDY    64  64  99 CALM      30.02R
SEARCY         CLOUDY    64  64 100 CALM      30.04R
HOT SPRINGS    MOCLDY    68  66  93 E7        30.00S
RUSSELLVILLE   CLEAR     67  66  97 CALM      30.00R
CLINTON        CLOUDY    63  63 100 CALM      30.04R FOG
$$

ARZ036-291200-
EAST ARKANSAS

CITY           SKY/WX    TMP DP  RH WIND       PRES   REMARKS
WEST MEMPHIS   MOCLDY    67  67 100 S3        30.03R
$$

ARZ050-053-066-070-073-291200-
SOUTHWEST ARKANSAS

CITY           SKY/WX    TMP DP  RH WIND       PRES   REMARKS
ARKADELPHIA    FAIR      67  67 100 CALM      30.00S
CAMDEN         MOCLDY    64  63  94 CALM      29.99S FOG
TEXARKANA      CLOUDY    69  67  93 S5        29.99R
EL DORADO      MOCLDY    67  66  97 CALM      30.00R
DE QUEEN       CLOUDY    68  67  96 E18       29.97R
$$

ARZ056-057-069-291200-
SOUTHEAST ARKANSAS

CITY           SKY/WX    TMP DP  RH WIND       PRES   REMARKS
PINE BLUFF     CLOUDY    67  66  97 SE5       30.02R
STUTTGART      CLOUDY    70  66  88 CALM      30.02R
MONTICELLO     MOCLDY    69  68  96 CALM      30.01R

$$




USA.gov is the U.S. government's official web portal to all federal, state and local government web resources and services.